Terug naar catalogus

FENGYUN 1C DEB

ActiefSSO
NORAD 31735·DEBRIS·🇨🇳 China

Gelanceerd May 10, 1999 vanaf Taiyuan Satellite Launch Center

Loading…

Volgende Passages (komende 24 uur)

TLE

VersSource: Space-Track

Epoch: Sep 14, 2026, 13:04 UTC

1 31735U 99025CEJ 26257.54494374  .00001893  00000-0  55604-3 0  9990
2 31735  98.5910   7.9807 0059460 174.5465 185.6385 14.43932225  6366

Volg FENGYUN 1C DEB in realtime met AllMySat

Download on the App Store